This demonstration page uses our WeatherBlox Daily Observations layout. Learn more.

Left ArrowRight Arrow

41.86663, -103.66717

Hourly Observations for October 25, 2021

Temp ( °F °C ) Dew Point ( °F °C ) Humidity (%) Winds ( mph kmh ) Pressure ( in mb ) Visibility ( mi km ) Precip ( " mm )
12:53 am 00:53 Clear 38 3.3 31 -0.6 76 76 ESE 9 15 29.92 1013 10 16 N/A
1:53 am 01:53 Clear 37 2.8 32 undefined 82 82 E 8 13 29.92 1013 10 16 N/A
2:53 am 02:53 Mostly Clear 39 3.9 33 0.6 79 79 ESE 10 17 29.89 1012 10 16 N/A
3:53 am 03:53 Clear 39 3.9 33 0.6 79 79 E 10 17 29.88 1012 10 16 N/A
4:53 am 04:53 Clear 41 5 34 1.1 76 76 E 12 19 29.89 1012 10 16 N/A
5:53 am 05:53 Clear 42 5.6 35 1.7 76 76 ESE 14 22 29.89 1012 10 16 N/A
6:53 am 06:53 Clear 41 5 35 1.7 79 79 ESE 14 22 29.92 1013 10 16 N/A
7:53 am 07:53 Sunny 40 4.4 34 1.1 79 79 E 16 26 29.92 1013 10 16 N/A
8:53 am 08:53 Sunny 43 6.1 36 2.2 76 76 ESE 17 28 29.91 1013 10 16 N/A
9:53 am 09:53 Sunny 50 10 37 2.8 61 61 ESE 16 26 29.88 1012 10 16 N/A
10:53 am 10:53 Sunny 57 13.9 39 3.9 51 51 ESE 17 28 29.84 1010 10 16 N/A
11:53 am 11:53 Sunny 59 15 36 2.2 42 42 SE 18 30 29.81 1010 10 16 N/A
12:53 pm 12:53 Sunny 59 15 36 2.2 42 42 SSE 14 22 29.78 1009 10 16 N/A
1:53 pm 13:53 Sunny 65 18.3 38 3.3 37 37 SE 17 28 29.73 1007 10 16 N/A
2:53 pm 14:53 Sunny 66 18.9 37 2.8 34 34 SSE 17 28 29.69 1005 10 16 N/A
3:53 pm 15:53 Sunny 66 18.9 38 3.3 36 36 SE 15 24 29.67 1005 10 16 N/A
4:53 pm 16:53 Sunny 66 18.9 39 3.9 37 37 ESE 15 24 29.65 1004 10 16 N/A
5:53 pm 17:53 Sunny 60 15.6 40 4.4 47 47 ESE 15 24 29.66 1005 10 16 N/A
6:53 pm 18:53 Clear 57 13.9 41 5 55 55 ESE 20 31 29.67 1005 10 16 N/A
7:53 pm 19:53 Clear 54 12.2 42 5.6 64 64 ESE 18 30 29.68 1005 10 16 N/A
8:53 pm 20:53 Clear 52 11.1 42 5.6 69 69 ESE 17 28 29.67 1005 10 16 N/A
9:53 pm 21:53 Clear 50 10 41 5 71 71 ESE 17 28 29.66 1004 10 16 N/A
10:53 pm 22:53 Clear 47 8.3 40 4.4 77 77 ESE 20 31 29.62 1003 10 16 N/A
11:53 pm 23:53 Clear 45 7.2 39 3.9 80 80 E 15 24 29.61 1003 10 16 N/A

Powered by AerisWeather